Precipitable_Water
0.52 0.51 0.49 0.30 0.10 0.09 0.07 0.10 0.16 0.15 0.17 0.24 0.29 0.25 0.23 0.26 0.26 0.25 1.08 1.30 1.40 1.43 1.62 1.62 1.55 1.48 1.45 1.46 1.48 1.50 1.49 1.43 1.43 1.45 1.47 1.46 1.39 1.28 1.25 1.20 1.16 1.07 1.04 0.99 1.05 1.05 1.02 0.98 0.94
0.49 0.43 0.34 0.18 0.08 0.06 0.08 0.14 0.14 0.17 0.20 0.26 0.26 0.24 0.21 0.17 0.35 0.59 0.92 1.26 1.37 1.48 1.60 1.60 1.56 1.46 1.40 1.38 1.39 1.39 1.36 1.35 1.33 1.34 1.38 1.37 1.30 1.27 1.23 1.16 1.06 1.00 0.96 1.00 1.16 1.15 0.99 0.88 0.81
0.46 0.41 0.23 0.13 0.09 0.06 0.08 0.15 0.18 0.20 0.24 0.26 0.24 0.27 0.25 0.23 0.48 0.57 1.01 1.18 1.25 1.33 1.52 1.58 1.54 1.45 1.38 1.34 1.29 1.28 1.26 1.26 1.25 1.27 1.25 1.19 1.20 1.20 1.16 1.08 0.97 0.94 0.97 1.17 1.24 1.12 1.06 1.02 0.97
0.37 0.29 0.24 0.13 0.09 0.11 0.12 0.16 0.20 0.20 0.21 0.25 0.24 0.21 0.32 0.57 0.66 0.85 1.01 1.09 1.10 1.16 1.33 1.45 1.46 1.42 1.41 1.37 1.33 1.31 1.31 1.32 1.28 1.20 1.09 1.07 1.11 1.13 1.08 1.03 0.99 0.98 1.29 1.50 1.32 1.33 1.38 1.36 1.17
0.34 0.25 0.12 0.11 0.11 0.14 0.17 0.20 0.21 0.18 0.20 0.21 0.23 0.20 0.25 0.55 0.88 1.00 1.09 1.13 1.08 1.12 1.25 1.35 1.39 1.42 1.43 1.45 1.42 1.38 1.41 1.39 1.32 1.18 1.12 1.20 1.23 1.24 1.26 1.24 1.17 1.24 1.49 1.59 1.51 1.44 1.46 1.44 1.30
0.24 0.23 0.11 0.09 0.11 0.15 0.19 0.22 0.20 0.20 0.21 0.23 0.22 0.22 0.26 0.62 0.74 0.95 1.05 1.16 1.17 1.15 1.21 1.29 1.35 1.38 1.43 1.46 1.53 1.55 1.51 1.47 1.37 1.26 1.23 1.38 1.41 1.40 1.32 1.32 1.31 1.35 1.48 1.59 1.48 1.43 1.47 1.39 1.26
0.23 0.20 0.15 0.14 0.13 0.15 0.21 0.26 0.25 0.25 0.24 0.25 0.28 0.21 0.28 0.37 0.61 0.97 1.04 1.13 1.23 1.22 1.21 1.25 1.31 1.34 1.41 1.44 1.52 1.62 1.61 1.57 1.45 1.36 1.33 1.45 1.46 1.39 1.33 1.44 1.38 1.44 1.52 1.57 1.58 1.45 1.30 1.24 1.14
0.32 0.26 0.20 0.20 0.17 0.17 0.29 0.30 0.32 0.29 0.26 0.35 0.36 0.26 0.27 0.37 0.58 0.87 1.07 1.12 1.16 1.25 1.34 1.37 1.35 1.40 1.40 1.45 1.50 1.55 1.63 1.66 1.59 1.45 1.40 1.48 1.53 1.47 1.38 1.40 1.45 1.45 1.47 1.39 1.35 1.31 1.21 1.03 0.82
0.42 0.22 0.19 0.21 0.21 0.22 0.34 0.31 0.37 0.38 0.32 0.34 0.40 0.41 0.46 0.49 0.49 0.49 0.66 0.84 0.89 0.94 1.02 1.14 1.22 1.39 1.46 1.44 1.55 1.55 1.58 1.61 1.65 1.62 1.56 1.57 1.57 1.55 1.46 1.43 1.47 1.41 1.43 1.40 1.19 1.04 0.91 0.85 0.89
0.34 0.24 0.22 0.30 0.30 0.30 0.34 0.32 0.33 0.32 0.31 0.33 0.36 0.44 0.48 0.48 0.47 0.44 0.44 0.50 0.68 0.80 0.86 0.92 1.03 1.19 1.30 1.54 1.50 1.56 1.59 1.62 1.65 1.67 1.63 1.63 1.65 1.61 1.53 1.49 1.47 1.32 1.40 1.45 1.40 1.26 1.01 0.91 0.87
0.37 0.25 0.32 0.35 0.41 0.39 0.34 0.32 0.34 0.30 0.28 0.37 0.33 0.37 0.44 0.46 0.46 0.46 0.47 0.48 0.50 0.63 0.75 0.83 0.89 1.00 1.12 1.27 1.56 1.58 1.64 1.62 1.60 1.64 1.72 1.61 1.63 1.66 1.61 1.51 1.55 1.38 1.37 1.51 1.52 1.44 1.19 0.86 0.80
0.29 0.38 0.38 0.38 0.39 0.35 0.32 0.36 0.32 0.33 0.33 0.39 0.42 0.44 0.44 0.42 0.44 0.46 0.47 0.49 0.49 0.50 0.57 0.69 0.82 0.85 0.96 1.04 1.29 1.55 1.60 1.64 1.65 1.59 1.64 1.62 1.58 1.56 1.56 1.52 1.52 1.53 1.40 1.41 1.50 1.41 1.30 1.10 0.92
0.31 0.34 0.37 0.34 0.34 0.32 0.35 0.32 0.32 0.32 0.38 0.40 0.41 0.42 0.42 0.43 0.44 0.45 0.48 0.51 0.52 0.51 0.52 0.57 0.67 0.77 0.84 0.92 1.01 1.23 1.46 1.57 1.57 1.63 1.64 1.66 1.59 1.53 1.49 1.47 1.50 1.49 1.52 1.42 1.42 1.32 1.29 1.20 1.12
0.37 0.36 0.31 0.31 0.31 0.30 0.33 0.34 0.35 0.36 0.40 0.39 0.40 0.41 0.43 0.43 0.43 0.44 0.44 0.44 0.48 0.52 0.54 0.57 0.59 0.65 0.71 0.82 0.91 1.02 1.19 1.36 1.50 1.53 1.62 1.67 1.61 1.59 1.53 1.47 1.47 1.45 1.52 1.51 1.44 1.34 1.23 1.25 1.24
0.37 0.28 0.29 0.28 0.28 0.27 0.32 0.30 0.30 0.35 0.36 0.35 0.38 0.39 0.41 0.41 0.42 0.43 0.45 0.45 0.47 0.48 0.53 0.54 0.57 0.61 0.63 0.66 0.82 0.93 1.05 1.17 1.28 1.41 1.50 1.56 1.60 1.63 1.62 1.56 1.51 1.45 1.46 1.49 1.49 1.39 1.30 1.21 1.25
0.27 0.29 0.21 0.23 0.24 0.25 0.26 0.21 0.30 0.34 0.32 0.31 0.33 0.35 0.37 0.38 0.39 0.41 0.43 0.44 0.47 0.48 0.49 0.54 0.57 0.56 0.61 0.64 0.68 0.83 0.94 1.06 1.16 1.27 1.37 1.37 1.40 1.50 1.56 1.39 1.39 1.41 1.43 1.50 1.43 1.40 1.29 1.22 1.13
0.18 0.14 0.15 0.16 0.17 0.15 0.15 0.16 0.22 0.26 0.24 0.23 0.25 0.26 0.28 0.31 0.32 0.35 0.37 0.38 0.42 0.44 0.47 0.49 0.53 0.56 0.56 0.62 0.67 0.71 0.84 0.94 1.03 1.13 1.24 1.32 1.29 1.27 1.39 1.47 1.46 1.46 1.39 1.49 1.48 1.38 1.31 1.23 1.15
0.10 0.09 0.10 0.09 0.11 0.10 0.10 0.12 0.16 0.18 0.18 0.17 0.18 0.20 0.21 0.23 0.22 0.25 0.30 0.34 0.34 0.36 0.40 0.42 0.47 0.51 0.56 0.58 0.63 0.69 0.74 0.83 0.95 1.03 1.11 1.21 1.31 1.28 1.25 1.35 1.43 1.46 1.44 1.42 1.43 1.35 1.37 1.29 1.24
0.10 0.09 0.08 0.08 0.10 0.09 0.10 0.11 0.14 0.16 0.17 0.16 0.17 0.18 0.19 0.20 0.21 0.22 0.21 0.24 0.26 0.28 0.30 0.36 0.38 0.42 0.49 0.52 0.56 0.61 0.65 0.73 0.84 0.95 1.03 1.07 1.16 1.27 1.28 1.24 1.27 1.35 1.35 1.36 1.37 1.36 1.29 1.28 1.31
0.07 0.07 0.06 0.07 0.08 0.07 0.11 0.11 0.15 0.15 0.15 0.17 0.17 0.17 0.18 0.19 0.20 0.20 0.19 0.20 0.22 0.24 0.26 0.28 0.33 0.37 0.41 0.47 0.53 0.58 0.63 0.71 0.76 0.83 0.86 0.94 0.98 1.09 1.22 1.21 1.22 1.19 1.22 1.28 1.34 1.34 1.26 1.23 1.30
0.06 0.06 0.06 0.06 0.09 0.09 0.10 0.10 0.11 0.14 0.14 0.14 0.15 0.16 0.17 0.18 0.18 0.18 0.18 0.19 0.20 0.21 0.23 0.24 0.28 0.32 0.36 0.40 0.47 0.52 0.59 0.66 0.70 0.73 0.77 0.82 0.86 0.94 1.02 1.13 1.22 1.19 1.16 1.12 1.17 1.27 1.25 1.14 1.23
0.05 0.07 0.07 0.07 0.06 0.04 0.09 0.04 0.09 0.11 0.11 0.12 0.13 0.14 0.14 0.15 0.17 0.18 0.17 0.17 0.18 0.21 0.24 0.24 0.27 0.28 0.30 0.35 0.38 0.44 0.48 0.52 0.62 0.67 0.71 0.76 0.83 0.85 0.94 1.04 1.11 1.16 1.18 1.15 1.14 1.16 1.17 1.19 1.09
0.07 0.08 0.08 0.08 0.07 0.07 0.08 0.06 0.08 0.10 0.08 0.09 0.11 0.12 0.14 0.15 0.15 0.16 0.17 0.17 0.18 0.20 0.22 0.22 0.24 0.27 0.30 0.31 0.33 0.38 0.42 0.50 0.58 0.64 0.68 0.69 0.76 0.81 0.85 0.94 1.05 1.08 1.13 1.17 1.20 1.14 1.11 1.16 1.09
0.10 0.08 0.07 0.08 0.07 0.05 0.07 0.07 0.06 0.07 0.09 0.10 0.11 0.12 0.12 0.13 0.14 0.15 0.18 0.18 0.18 0.19 0.20 0.21 0.21 0.23 0.27 0.31 0.32 0.33 0.37 0.42 0.49 0.57 0.62 0.67 0.70 0.75 0.80 0.87 0.96 1.02 1.04 1.10 1.16 1.20 1.18 1.09 1.11
0.08 0.06 0.03 0.03 0.03 0.03 0.07 0.06 0.06 0.10 0.12 0.12 0.11 0.11 0.11 0.12 0.12 0.13 0.15 0.16 0.16 0.18 0.19 0.20 0.20 0.20 0.23 0.28 0.31 0.33 0.34 0.38 0.42 0.49 0.57 0.62 0.65 0.69 0.72 0.79 0.85 0.90 1.00 1.04 1.08 1.10 1.12 1.14 1.07
0.08 0.08 0.04 0.02 0.03 0.03 0.07 0.05 0.07 0.12 0.13 0.12 0.12 0.11 0.11 0.11 0.12 0.12 0.13 0.14 0.15 0.16 0.18 0.19 0.19 0.20 0.21 0.25 0.29 0.33 0.35 0.35 0.38 0.45 0.51 0.59 0.62 0.67 0.74 0.75 0.80 0.85 0.92 0.99 1.02 1.03 1.03 1.06 1.09
0.07 0.05 0.09 0.07 0.07 0.05 0.06 0.08 0.10 0.13 0.13 0.11 0.11 0.10 0.10 0.11 0.12 0.12 0.13 0.14 0.14 0.15 0.16 0.18 0.19 0.21 0.21 0.23 0.26 0.32 0.35 0.36 0.35 0.39 0.47 0.53 0.59 0.63 0.71 0.74 0.79 0.82 0.88 0.99 0.96 0.95 0.91 0.95 1.00
0.08 0.09 0.05 0.06 0.04 0.03 0.04 0.05 0.06 0.10 0.10 0.11 0.10 0.10 0.10 0.11 0.12 0.12 0.13 0.14 0.14 0.15 0.16 0.17 0.18 0.19 0.22 0.23 0.26 0.29 0.34 0.36 0.37 0.38 0.41 0.47 0.54 0.59 0.64 0.71 0.74 0.79 0.84 0.94 0.96 0.89 0.94 0.92 0.91
0.08 0.07 0.07 0.07 0.07 0.05 0.04 0.04 0.09 0.10 0.11 0.11 0.11 0.11 0.11 0.12 0.12 0.13 0.14 0.14 0.15 0.16 0.16 0.17 0.17 0.18 0.19 0.23 0.25 0.27 0.31 0.35 0.37 0.38 0.40 0.45 0.49 0.53 0.60 0.67 0.69 0.72 0.78 0.83 0.89 0.88 0.91 0.89 0.88
0.10 0.08 0.08 0.06 0.05 0.07 0.07 0.06 0.11 0.12 0.12 0.12 0.11 0.11 0.12 0.13 0.13 0.14 0.14 0.15 0.15 0.16 0.16 0.17 0.17 0.18 0.18 0.20 0.23 0.25 0.30 0.34 0.36 0.37 0.39 0.43 0.44 0.51 0.56 0.62 0.63 0.72 0.75 0.80 0.84 0.82 0.90 0.90 0.91
Wind_Speed
2 2 2 3 3 3 5 6 6 7 7 6 6 6 8 9 10 11 10 9 10 12 14 15 15 15 15 15 14 14 14 14 13 13 13 13 13 13 13 13 13 12 11 10 10 10 9 9 9
3 1 1 2 2 4 6 6 7 7 7 7 7 7 8 9 11 13 12 11 11 13 13 14 16 16 16 16 16 16 16 15 15 15 14 13 13 13 13 13 13 13 13 12 11 11 10 10 9
2 2 2 1 1 2 3 5 5 7 8 8 9 9 9 9 10 11 13 13 12 14 15 16 17 17 18 18 18 18 18 17 17 16 16 15 14 14 14 13 13 14 14 13 12 12 11 10 9
4 4 4 3 4 5 5 4 6 7 6 7 8 8 9 10 10 11 12 13 14 15 16 17 18 19 19 20 20 20 20 19 18 18 17 17 16 15 15 14 14 14 15 15 14 13 12 11 10
5 5 5 5 6 7 7 8 9 9 9 9 9 9 10 9 11 11 12 12 14 15 17 19 20 20 20 20 21 21 22 21 20 19 19 18 17 16 16 15 15 15 16 17 16 14 13 12 12
6 6 6 7 8 8 9 9 9 10 10 11 10 12 10 12 12 12 12 13 13 14 15 17 20 22 23 23 23 23 23 23 22 22 21 20 19 18 17 16 16 17 18 19 18 16 14 14 12
7 8 9 9 11 11 10 11 9 10 10 11 14 13 14 13 15 15 15 15 15 16 16 17 19 21 23 25 26 25 25 25 24 24 23 22 21 20 19 18 17 17 18 19 19 18 16 15 14
9 9 10 11 11 10 11 11 12 12 13 15 15 14 17 20 19 17 16 16 16 16 17 18 20 20 22 24 26 27 27 27 26 26 26 25 24 22 20 20 19 18 19 19 20 19 18 17 16
11 11 12 13 12 12 13 14 16 16 15 13 17 17 21 21 20 19 19 19 19 19 19 19 20 20 23 24 25 27 29 29 29 28 27 27 26 25 23 22 22 21 20 19 19 19 18 18 17
13 13 14 14 14 15 16 18 20 19 17 21 21 21 22 22 22 22 21 22 22 22 23 23 23 23 23 24 26 27 29 29 30 29 29 28 28 27 26 24 24 24 23 21 20 19 18 18 17
13 14 15 16 17 19 20 18 20 22 21 23 24 26 25 24 24 24 25 25 25 26 26 25 26 26 25 26 26 28 29 30 31 31 30 30 29 29 28 27 26 26 25 23 22 20 19 19 18
15 15 17 19 21 22 22 21 17 18 22 24 24 24 24 25 26 27 28 28 28 28 28 28 28 28 28 28 28 28 29 31 31 32 32 32 31 31 31 29 28 28 28 26 24 23 21 20 20
17 17 18 20 20 21 19 20 20 22 24 25 24 24 24 24 25 27 29 30 31 31 31 31 31 30 31 31 31 31 30 31 32 33 34 33 33 33 33 32 31 30 30 29 27 25 24 23 22
19 18 19 22 23 20 21 22 25 27 27 26 26 26 26 26 26 27 28 30 31 33 34 34 34 34 34 34 34 35 35 33 34 34 34 34 34 34 36 35 33 32 31 31 29 27 26 25 24
21 22 23 25 28 25 25 25 25 29 28 27 28 28 28 28 29 29 30 30 31 32 34 36 37 37 37 37 37 37 38 37 36 36 37 36 36 37 37 34 33 34 34 32 31 29 28 27 26
23 23 24 25 26 26 26 24 25 28 27 27 28 29 30 30 31 31 32 33 33 33 34 35 36 38 39 39 39 40 40 40 40 39 39 39 39 38 38 36 32 37 36 32 32 30 29 28 29
24 23 25 26 26 28 26 26 28 29 29 30 31 32 32 33 33 34 34 34 35 35 36 36 36 37 39 41 41 41 42 42 41 42 40 41 40 40 38 36 36 35 34 33 34 32 31 29 29
25 26 26 28 29 30 27 26 28 30 30 31 32 33 34 35 36 36 37 37 37 37 38 38 38 38 38 40 42 43 43 43 43 43 42 42 43 42 41 39 37 37 36 36 35 35 34 32 31
25 27 28 29 29 29 27 27 27 28 29 31 32 33 34 35 36 37 38 39 39 39 40 40 41 40 40 40 41 43 44 45 45 45 44 43 43 44 44 43 42 40 39 38 38 36 36 34 34
26 26 29 31 29 31 25 26 26 27 28 29 31 32 34 35 36 36 37 38 38 39 40 41 42 42 42 42 42 43 45 46 47 47 47 46 45 45 45 46 45 44 42 40 39 38 36 36 36
27 27 30 32 33 32 25 27 27 28 28 29 31 32 34 35 36 37 37 37 38 39 39 40 42 43 44 44 45 44 44 46 47 48 49 49 48 47 47 48 47 46 45 44 43 41 39 37 37
30 31 34 34 31 27 27 28 27 29 29 31 32 33 34 36 37 37 37 37 38 39 39 39 39 41 43 45 46 47 46 47 48 49 51 51 51 50 49 49 49 49 47 47 46 44 43 41 38
30 36 35 33 28 26 26 27 27 28 30 32 32 33 33 34 35 36 36 36 37 37 37 37 37 38 40 42 45 48 49 50 49 50 51 51 52 52 51 50 51 51 50 49 48 47 46 44 42
35 33 28 25 24 25 24 26 27 26 27 28 30 31 33 34 34 34 34 35 35 34 35 35 35 37 38 40 42 46 49 51 52 52 52 51 51 52 53 52 51 53 52 51 49 48 48 47 45
33 30 27 25 26 25 25 27 25 23 24 25 28 30 31 32 32 32 32 32 32 32 32 33 34 34 35 37 39 42 47 50 52 54 54 54 53 52 53 54 53 52 54 54 53 51 50 49 48
29 27 24 25 26 28 27 21 21 20 21 23 26 29 31 31 31 32 31 30 30 30 30 30 30 30 32 33 35 38 41 46 50 53 54 55 55 55 55 56 56 56 54 56 55 54 53 52 50
29 27 25 25 25 24 22 19 21 17 20 25 28 30 32 33 32 32 32 31 31 30 29 28 28 27 28 28 30 33 36 40 45 51 54 55 55 56 56 57 58 57 58 57 58 56 56 55 54
26 27 24 24 22 23 20 20 17 17 22 26 29 33 34 33 32 32 32 31 31 30 28 27 26 26 26 25 26 27 30 34 38 45 50 53 54 55 57 58 58 59 58 58 58 58 58 56 56
25 25 24 22 20 18 19 17 17 18 22 28 32 33 34 33 32 32 31 31 31 30 28 27 26 25 24 24 24 25 26 28 32 37 44 50 52 53 55 57 60 59 59 60 59 59 58 59 58
23 23 21 20 20 17 18 20 14 19 27 30 33 34 34 33 32 32 31 31 30 29 28 26 25 24 23 23 23 23 23 24 26 29 36 43 46 49 51 53 56 56 60 60 60 59 60 60 59
Wind_Direction
321 290 239 230 241 247 246 248 251 249 249 245 248 244 248 252 249 253 264 253 248 231 227 227 226 225 226 223 222 220 218 217 216 216 215 215 215 214 213 214 214 215 213 209 202 197 193 190 187
21 37 20 257 252 254 255 251 248 249 252 251 251 258 263 266 263 261 255 255 246 232 231 230 228 229 228 227 226 224 222 222 221 220 219 218 217 216 216 216 216 214 211 205 200 195 190 188 187
347 344 322 312 278 249 245 241 260 269 259 258 263 265 265 270 270 264 256 253 247 239 238 236 234 234 232 230 229 227 226 225 225 225 224 222 220 218 218 216 214 211 208 204 199 193 189 186 183
313 314 317 297 269 274 265 266 277 285 262 262 270 271 271 272 274 272 267 253 249 245 243 240 238 237 235 233 232 230 228 227 226 226 224 221 220 219 218 217 214 211 208 204 198 194 193 193 190
313 306 300 292 280 277 276 275 281 278 274 276 277 276 276 278 282 276 263 254 252 248 247 244 242 239 237 236 234 232 230 228 227 225 222 220 219 218 218 218 216 214 210 207 201 199 198 198 195
303 297 297 284 279 281 284 286 278 284 280 280 277 278 272 282 287 278 268 261 256 252 251 249 244 242 240 239 237 234 232 230 229 226 223 221 221 221 221 221 220 218 214 209 205 205 201 201 207
287 290 282 281 281 285 285 281 285 283 280 285 276 271 268 289 287 272 268 264 262 260 257 254 251 246 243 240 237 235 233 231 229 228 225 224 223 223 223 222 218 214 210 208 206 208 212 215 219
286 286 285 282 282 282 288 278 282 286 275 281 282 273 278 288 285 273 265 264 262 260 259 258 254 249 245 242 238 236 234 232 231 229 227 226 225 224 224 222 218 214 210 210 212 216 220 222 223
284 288 283 282 276 276 282 284 281 278 285 276 292 289 285 284 281 278 273 270 268 266 264 264 260 258 250 244 241 237 235 233 232 230 229 227 226 225 225 224 221 219 216 216 218 220 221 220 220
288 284 277 279 278 278 279 282 280 277 288 283 288 291 288 284 279 276 274 271 270 270 268 265 264 261 258 251 246 241 237 234 233 232 231 230 228 227 226 225 224 222 221 220 221 221 220 219 220
288 283 283 285 285 286 283 285 287 280 284 286 286 286 287 284 280 277 273 271 269 267 266 266 264 261 259 255 251 244 240 236 234 232 231 230 230 229 227 227 226 224 223 224 223 222 222 220 217
293 293 291 294 292 287 282 279 287 296 282 285 284 284 286 286 281 278 275 272 270 267 267 266 265 261 259 256 251 248 244 240 236 234 233 232 231 231 229 228 227 226 225 225 226 225 224 221 218
295 293 295 299 293 301 287 290 274 298 290 287 285 286 287 285 284 280 277 273 270 268 266 265 264 261 260 256 252 248 247 244 240 237 235 233 232 232 231 231 228 226 226 226 227 227 225 222 221
295 296 296 298 298 297 288 289 275 292 289 288 288 287 287 287 285 282 282 278 275 270 267 264 262 261 260 256 254 249 247 246 243 240 237 235 234 233 232 230 229 228 227 227 227 227 226 225 223
295 291 294 302 297 291 286 288 291 290 289 289 288 288 286 288 287 285 282 280 278 274 270 267 263 261 259 256 255 251 249 247 244 242 239 238 237 235 236 229 228 231 228 227 227 227 227 226 224
300 296 294 299 303 292 292 283 292 293 291 292 290 288 287 288 288 286 284 281 279 276 274 271 267 262 259 256 254 251 249 247 244 243 241 240 239 239 242 238 230 234 230 227 227 227 228 227 226
307 298 299 296 302 298 296 286 294 295 293 293 291 289 287 286 288 287 285 282 280 277 275 272 269 267 261 256 253 251 249 246 244 242 241 240 239 238 239 238 235 230 231 229 228 228 229 229 228
304 303 300 298 301 301 294 291 294 296 296 294 293 291 290 288 288 286 285 282 281 278 275 272 270 267 264 258 254 250 247 246 245 242 241 241 240 238 237 237 235 233 232 231 231 231 232 232 230
305 302 301 299 298 302 295 294 296 298 298 298 296 294 292 290 289 289 287 285 282 280 277 274 271 268 265 261 257 252 248 246 243 242 242 241 240 238 237 236 236 234 233 232 231 232 231 232 229
311 307 305 302 301 302 294 296 295 300 302 300 300 297 296 294 293 292 290 289 285 282 279 275 272 268 264 261 257 253 249 244 243 241 242 241 240 239 238 236 235 234 234 233 232 231 232 232 230
310 310 306 302 305 300 294 292 296 297 302 303 304 301 299 297 295 295 294 291 288 285 282 279 274 269 264 262 257 254 250 246 243 243 241 240 241 240 239 237 235 234 233 233 232 232 231 232 231
311 312 310 307 308 302 298 298 295 299 301 307 305 304 303 301 298 296 296 294 291 288 284 281 277 273 267 262 258 255 251 248 246 244 242 241 241 240 239 238 235 234 234 233 232 232 232 231 232
311 312 308 306 302 302 304 298 298 300 301 306 305 305 304 303 302 298 296 295 294 290 287 284 280 277 271 266 260 255 252 249 247 245 243 241 240 239 238 238 235 234 234 233 232 231 231 232 232
318 316 313 310 306 302 302 304 299 301 300 304 307 309 309 307 304 303 298 298 296 293 290 286 285 281 276 270 264 258 253 250 248 246 244 241 240 238 237 236 236 234 233 232 231 231 231 231 232
326 323 316 312 311 304 306 303 297 298 303 306 311 313 313 312 309 308 304 301 300 297 294 291 288 285 282 274 268 262 256 251 248 246 244 243 241 238 237 236 236 235 233 233 232 231 231 231 232
322 323 318 309 309 307 308 298 304 296 304 311 316 316 316 315 313 310 306 303 303 301 298 295 293 289 288 280 273 265 260 253 248 245 243 242 240 239 237 236 236 235 235 233 232 232 232 232 232
322 323 317 312 307 307 307 304 307 300 308 318 318 320 319 318 315 312 309 303 303 301 298 296 295 293 293 286 281 273 264 257 251 246 243 242 241 239 238 237 236 235 234 233 232 233 233 232 231
325 323 320 319 313 309 309 306 304 307 310 315 317 319 319 317 315 315 313 307 302 298 297 296 297 293 297 293 286 281 272 262 257 249 243 241 240 239 238 238 236 235 234 233 232 232 232 232 231
324 323 321 315 311 309 311 308 305 305 312 315 316 319 321 317 314 314 314 313 309 297 295 294 294 293 296 297 292 287 280 271 263 254 247 242 241 240 238 238 236 235 234 233 232 232 231 230 230
321 318 318 317 313 306 305 307 309 310 315 318 320 320 321 319 316 314 313 314 313 306 293 293 292 293 294 297 296 291 285 279 271 263 251 243 241 238 238 237 235 234 233 232 232 231 230 229 229